Location: Wien
(48.2082°N, 16.3738°E)
Time: 05:46:52
(UTC+02:00)

STRAND 1 - Visible Passes

Search period start: 21 October 2019 00:00
Search period end: 30 October 2019 23:00
Orbit: 769 x 780 km, 98.5° (Epoch: 20 October)

Date Brightness Start Highest point End Pass type
(mag) Time Alt. Az. Time Alt. Az. Time Alt. Az.
21 Oct ? 06:15:39 10° ESE 06:19:47 25° ENE 06:23:56 10° N visible
21 Oct ? 20:00:14 10° NNE 20:00:34 12° NNE 20:00:34 12° NNE visible
21 Oct ? 21:39:38 10° N 21:40:56 17° NNW 21:40:56 17° NNW visible
22 Oct ? 05:43:32 10° E 05:46:13 14° NE 05:48:55 10° NNE visible
22 Oct ? 21:05:18 10° N 21:06:07 15° N 21:06:07 15° N visible
23 Oct ? 06:45:53 10° SE 06:50:43 43° ENE 06:55:35 10° N visible
23 Oct ? 20:31:14 10° NNE 20:31:18 10° NNE 20:31:18 10° NNE visible
23 Oct ? 22:11:29 10° NNW 22:11:40 11° NNW 22:11:40 11° NNW visible
24 Oct ? 06:12:57 10° ESE 06:17:00 24° ENE 06:21:05 10° N visible
24 Oct ? 21:36:48 10° N 21:36:53 10° N 21:36:53 10° N visible
25 Oct ? 05:40:56 10° E 05:43:27 14° NE 05:45:59 10° NNE visible
26 Oct ? 06:43:08 10° SE 06:47:56 41° ENE 06:52:45 10° N visible
27 Oct ? 05:10:16 10° ESE 05:14:14 23° ENE 05:18:13 10° N visible
28 Oct ? 04:38:22 10° E 04:40:42 13° NE 04:43:02 10° NNE visible
29 Oct ? 05:40:24 10° SE 05:45:09 39° ENE 05:49:55 10° N visible
30 Oct ? 05:07:35 10° ESE 05:11:27 22° ENE 05:15:21 10° N visible
